Home   Weather   Horn   Past weeks

Flag for Austria Past Weather in Horn, Lower Austria, Austria — Yesterday and Last 2 Weeks

Now
67 °F

Scattered clouds.


Feels Like: 67 °F
Forecast: 52 / 70 °F
Wind: 5 mph from North

Location: Retz

Current Time: Aug 20, 2017 at 9:29:38 pm

Latest Report: Aug 20, 2017 at 8:00 pm


Visibility: 17 mi

Pressure: 30.13 "Hg

Humidity: 46%

Dew Point: 46 °F

Location of HornLocation

Past Weather in Horn — Graph

°F

Horn Temperature Yesterday

Maximum temperature yesterday: 77 °F (at 12:00 am)
Minimum temperature yesterday: 63 °F (at 10:00 am)
Average temperature yesterday: 67 °F

High & Low Weather Summary for the Past Weeks

 TemperatureHumidityPressure
High89 °F (Aug 18, 4:00 pm)99% (Aug 11, 7:00 am)30.19 "Hg (Aug 11, 7:00 am)
Low55 °F (Aug 12, 6:00 am)33% (Aug 20, 3:00 pm)29.83 "Hg (Aug 11, 2:00 pm)
Average70 °F67%30.04 "Hg
* Reported Aug 5 7:00 pm — Aug 20 7:00 pm, Horn. Weather by CustomWeather, © 2017

Note: Actual official high and low records may vary slightly from our data, if they occured in-between our weather recording intervals... More about our weather records

Advertising

Horn Weather History for the Previous 24 Hours

Scroll right to see more
 ConditionsComfort  
Time TempWeatherWind HumidityBarometerVisibility
7:00 pm
Sun, Aug 20
70 °FMild.5 mph42%30.11 "HgN/A
6:00 pm70 °FMild.6 mph40%30.10 "HgN/A
5:00 pm73 °FMild.5 mph38%30.09 "HgN/A
4:00 pm73 °FMild.5 mph37%30.09 "HgN/A
3:00 pm73 °FMild.6 mph33%30.09 "HgN/A
2:00 pm73 °FScattered clouds.6 mph40%30.09 "Hg19 mi
1:00 pm71 °FMild.5 mph39%30.09 "HgN/A
12:00 pm70 °FMild.7 mph42%30.11 "HgN/A
11:00 am67 °FMild.7 mph53%30.11 "HgN/A
10:00 am64 °FMild.6 mph59%30.11 "HgN/A
9:00 am62 °FCool.6 mph66%30.09 "HgN/A
8:00 am61 °FOvercast.7 mph70%30.09 "Hg14 mi
7:00 am60 °FCool.6 mph72%30.09 "HgN/A
6:00 am61 °FCool.6 mph75%30.08 "HgN/A
5:00 am61 °FCool.6 mph77%30.06 "HgN/A
4:00 am62 °FCool.5 mph80%30.07 "HgN/A
3:00 am62 °FCool.7 mph83%30.08 "HgN/A
2:00 am62 °FCool.7 mph83%30.08 "HgN/A
1:00 am63 °FMild.6 mph82%30.08 "HgN/A
12:00 am63 °FMild.8 mph82%30.08 "HgN/A
11:00 pm
Sat, Aug 19
64 °FMild.6 mph80%30.08 "HgN/A
10:00 pm64 °FMild.6 mph83%30.10 "HgN/A
9:00 pm65 °FMild.3 mph83%30.09 "HgN/A
Weather by CustomWeather, © 2017

See weather overviewHow to use our weather pages